TimeCDT,TemperatureF,Dew PointF,Humidity,Sea Level PressureIn,VisibilityMPH,Wind Direction,Wind SpeedMPH,Gust SpeedMPH,PrecipitationIn,Events,Conditions,WindDirDegrees,DateUTC
12:52 AM,73.9,59.0,59,29.95,-9999.0,SE,5.8,-,N/A,,Unknown,140,2013-07-06 05:52:00
1:52 AM,73.0,57.9,59,29.95,-9999.0,SSE,6.9,-,N/A,,Unknown,150,2013-07-06 06:52:00
2:52 AM,71.1,57.0,61,29.95,-9999.0,SSE,5.8,-,N/A,,Unknown,160,2013-07-06 07:52:00
3:52 AM,70.0,57.9,65,29.95,-9999.0,SSE,5.8,-,N/A,,Unknown,150,2013-07-06 08:52:00
4:52 AM,69.1,59.0,70,29.95,-9999.0,SE,4.6,-,N/A,,Unknown,140,2013-07-06 09:52:00
5:52 AM,68.0,59.0,73,29.96,-9999.0,SSE,3.5,-,N/A,,Unknown,160,2013-07-06 10:52:00
6:52 AM,68.0,60.1,76,29.97,-9999.0,SSE,4.6,-,N/A,,Unknown,150,2013-07-06 11:52:00
7:52 AM,71.1,62.1,73,29.98,-9999.0,SSE,4.6,-,N/A,,Unknown,160,2013-07-06 12:52:00
8:52 AM,75.0,63.0,66,29.96,-9999.0,South,6.9,-,N/A,,Unknown,190,2013-07-06 13:52:00
9:52 AM,79.0,64.0,60,29.95,-9999.0,South,8.1,-,N/A,,Unknown,190,2013-07-06 14:52:00
10:52 AM,82.9,64.9,54,29.95,-9999.0,SSW,6.9,-,N/A,,Unknown,210,2013-07-06 15:52:00
11:52 AM,84.9,64.9,51,29.93,-9999.0,SSW,9.2,17.3,N/A,,Unknown,200,2013-07-06 16:52:00
12:52 PM,86.0,64.0,48,29.92,-9999.0,South,8.1,-,N/A,,Unknown,180,2013-07-06 17:52:00
1:52 PM,88.0,64.0,45,29.90,-9999.0,SSE,8.1,-,N/A,,Unknown,160,2013-07-06 18:52:00
2:52 PM,89.1,63.0,42,29.89,-9999.0,South,9.2,-,N/A,,Unknown,190,2013-07-06 19:52:00
3:52 PM,89.1,64.0,43,29.88,-9999.0,SSE,11.5,-,N/A,,Unknown,150,2013-07-06 20:52:00
4:52 PM,90.0,63.0,40,29.88,-9999.0,South,6.9,17.3,N/A,,Unknown,180,2013-07-06 21:52:00
5:52 PM,89.1,63.0,42,29.88,-9999.0,South,11.5,-,N/A,,Unknown,190,2013-07-06 22:52:00
6:52 PM,87.1,63.0,44,29.88,-9999.0,South,5.8,-,N/A,,Unknown,170,2013-07-06 23:52:00
7:52 PM,86.0,63.0,46,29.89,-9999.0,South,8.1,-,N/A,,Unknown,170,2013-07-07 00:52:00
8:52 PM,82.9,62.1,49,29.90,-9999.0,South,5.8,-,N/A,,Unknown,180,2013-07-07 01:52:00
9:52 PM,81.0,61.0,50,29.91,-9999.0,South,4.6,-,N/A,,Unknown,170,2013-07-07 02:52:00
10:52 PM,77.0,63.0,62,29.92,-9999.0,Calm,Calm,-,N/A,,Unknown,0,2013-07-07 03:52:00
11:52 PM,75.0,62.1,64,29.93,-9999.0,SSE,3.5,-,N/A,,Unknown,150,2013-07-07 04:52:00